DB0FTH-6 Weather Reports


time (UTC)temp
C
wind
direction
speed
KPH
gust
KPH
rain 1hr
cm
rain 24hr
cm
rain mn
cm
humidity
%
barometer
mb
20200226182129 4 337 0.0 0.0 0.00 0.00 0.00 72 1006.0
20200226181129 4 337 0.0 0.0 0.00 0.00 0.00 72 1005.9
20200226180129 4 337 0.0 0.0 0.00 0.00 0.00 73 1005.7
20200226175129 4 337 0.0 0.0 0.00 0.00 0.00 73 1005.7
20200226174129 4 337 0.0 0.0 0.00 0.00 0.00 73 1005.7
20200226173129 4 337 0.0 0.0 0.00 0.00 0.00 72 1005.4
20200226172129 5 337 0.0 0.0 0.00 0.00 0.00 71 1005.2
20200226171129 5 337 0.0 0.0 0.00 0.00 0.00 71 1005.0
20200226170129 5 337 0.0 0.0 0.00 0.00 0.00 69 1004.9
20200226165129 5 337 0.0 0.0 0.00 0.00 0.00 69 1004.7
20200226164129 6 337 0.0 0.0 0.00 0.00 0.00 68 1004.7
20200226163129 6 337 0.0 0.0 0.00 0.00 0.00 68 1004.5
20200226162129 6 0 0.0 0.0 0.00 0.00 0.00 68 1004.4
20200226161129 6 337 0.0 0.0 0.00 0.00 0.00 68 1004.2
20200226160130 6 270 0.0 0.0 0.00 0.00 0.00 67 1004.2
20200226155129 6 337 0.0 0.0 0.00 0.00 0.00 67 1004.0
20200226154129 7 315 9.7 0.0 0.00 0.00 0.00 67 1003.9
20200226153129 7 270 0.0 0.0 0.00 0.00 0.00 67 1003.7
20200226152129 7 337 0.0 0.0 0.00 0.00 0.00 66 1003.5
20200226151129 7 315 0.0 0.0 0.00 0.00 0.00 66 1003.4
20200226150129 7 292 0.0 0.0 0.00 0.00 0.00 68 1003.0
20200226145129 6 337 0.0 0.0 0.00 0.00 0.00 69 1003.0
20200226144129 6 22 0.0 0.0 0.00 0.00 0.00 69 1002.9
20200226143129 6 315 0.0 0.0 0.00 0.00 0.00 69 1002.9
20200226142129 6 315 0.0 0.0 0.00 0.00 0.00 68 1002.5
20200226141129 7 315 0.0 0.0 0.00 0.00 0.00 68 1002.4
20200226140129 7 0 0.0 0.0 0.00 0.00 0.00 68 1002.2
20200226135129 7 0 0.0 0.0 0.00 0.00 0.00 67 1002.2
20200226134133 7 315 1.6 0.0 0.00 0.00 0.00 67 1002.0
20200226133130 7 22 0.0 0.0 0.00 0.00 0.00 67 1001.7
20200226132129 7 337 0.0 0.0 0.00 0.00 0.00 67 1001.7
20200226131129 7 315 0.0 0.0 0.00 0.00 0.00 68 1001.5
20200226130129 6 337 0.0 0.0 0.00 0.00 0.00 68 1001.5
20200226125129 6 337 0.0 0.0 0.00 0.00 0.00 68 1001.5
20200226124129 6 292 0.0 0.0 0.00 0.00 0.00 67 1001.2
20200226123129 6 0 0.0 0.0 0.00 0.00 0.00 68 1001.2
20200226122129 6 315 0.0 0.0 0.00 0.00 0.00 68 1001.0
20200226121129 6 337 0.0 0.0 0.00 0.00 0.00 68 1001.0
20200226120129 6 292 0.0 0.0 0.00 0.00 0.00 67 1001.0
20200226115129 6 315 0.0 0.0 0.00 0.00 0.00 65 1000.9
20200226114129 7 315 0.0 0.0 0.00 0.00 0.00 65 1000.7
20200226113129 7 247 0.0 0.0 0.00 0.00 0.00 64 1000.5